Вернуться в каталог

STARLINK-34279

АктивенСвязьVLEO
NORAD 64389·PAYLOAD·🇺🇸 United States

Запущен Jun 13, 2025 с Cape Canaveral Space Force Station

Loading…

Ближайшие Пролёты (ближайшие 24 часа)

TLE

СвежийSource: CelesTrak SupGP

Эпоха: Sep 14, 2026, 21:15 UTC

1 64389C 25127V   26257.88590278  .00003647  00000+0  13209-3 0  2570
2 64389  43.0023 191.7755 0001377 262.6400 209.0954 15.27573701    15

Отслеживайте STARLINK-34279 в реальном времени с AllMySat

Download on the App Store